Location: Slidell
(30.2789°N, 89.7378°W)
Time: 09:03:33
(UTC-06:00)

Daily predictions for brighter satellites

Satellite Brightness Start Highest point End
(mag) Time Altitude Azimuth Time Altitude Azimuth Time Altitude Azimuth
Okean 1-7 3.7 17:21:02 10° SSE 17:25:00 35° E 17:28:59 10° NNE
GENESIS II 4.1 17:22:15 10° NNW 17:26:10 80° ENE 17:30:01 10° SSE
AQUARIUS 4.2 17:22:37 10° SSE 17:27:02 60° ENE 17:31:27 10° N
Cosmos 841 Rocket 3.7 17:23:19 10° N 17:28:24 47° ENE 17:33:25 10° SE
Sich 1 Rocket 4.1 17:25:00 10° NNE 17:29:11 39° E 17:33:21 10° SSE
Meteor 1-20 Rocket 4.4 17:24:07 10° N 17:29:25 47° E 17:34:38 10° SSE
SJ-7 4.4 17:25:32 10° SSE 17:29:42 80° ENE 17:33:50 10° N
ALOS 3.8 17:27:23 10° ESE 17:30:06 15° ENE 17:32:49 10° NNE
Cosmos 1782 3.0 17:26:57 10° S 17:30:52 52° E 17:34:47 10° NNE
Cosmos 405 Rocket 3.8 17:28:56 10° SE 17:32:00 23° E 17:35:03 10° NE
Meteor 1-25 Rocket 4.4 17:26:42 10° N 17:32:27 58° E 17:38:06 10° SSE
SMAP 3.0 17:32:32 10° SSE 17:37:10 82° ENE 17:41:50 10° N
IUS-13 SRM-1 2.1 17:44:34 10° WSW 17:46:14 34° S 17:48:22 12° ESE
BREEZE-M DEB (TANK) 2.7 17:41:35 10° NW 17:48:39 61° NNE 17:51:41 10° ESE
Cosmos 1633 2.7 17:45:23 10° N 17:48:56 48° E 17:52:29 10° SSE
Meteor 1-27 Rocket 4.2 17:46:19 10° SSE 17:51:44 40° E 17:57:13 10° NNE
Cosmos 1782 Rocket 3.7 17:47:59 10° N 17:52:12 49° E 17:56:26 10° SSE
YAOGAN 1 2.5 17:48:07 10° SSE 17:52:21 61° ENE 17:56:38 10° N
USA 116 4.4 17:49:31 10° N 17:53:37 55° WNW 17:57:12 10° SSW
Delta 168 4.4 17:49:41 10° SW 17:53:53 39° SSE 17:59:05 13° E
Cosmos 1354 Rocket 4.2 17:48:46 10° SSW 17:54:02 76° WNW 17:59:18 10° NNE
ERBS 3.3 17:51:12 10° NW 17:54:29 50° SW 17:57:48 10° SSE
FENGYUN 3A 4.3 17:50:08 10° SE 17:54:49 31° ENE 17:59:30 10° N
CZ-4C R/B 4.1 17:49:48 10° N 17:54:59 20° NE 17:58:04 16° ENE
Cosmos 1891 Rocket 4.5 17:50:22 10° S 17:56:27 60° E 18:02:25 10° NNE
COSMO-SKYMED 1 2.5 17:54:17 10° NNE 17:58:38 81° ESE 18:02:57 10° S
USA 229 DEB 4.2 17:54:42 10° S 18:00:44 37° ESE 18:05:14 17° NE
USA 229 4.2 17:54:50 10° S 18:00:51 36° ESE 18:05:17 17° NE
SPOT 3 Rocket 3.9 17:56:01 10° SE 18:00:51 41° ENE 18:05:43 10° N
Meteor 1-10 Rocket 4.2 17:55:55 10° S 18:01:33 89° E 18:07:19 10° N
Tiangong 1 0.8 18:06:15 10° WSW 18:08:47 59° NNW 18:09:26 41° NNE
Cosmos 2369 Rocket 3.4 18:07:07 10° SSE 18:11:13 21° E 18:11:27 21° E
Cosmos 2221 Rocket 4.1 18:09:26 10° SSW 18:13:46 60° W 18:18:08 10° N
Cosmos 1833 Rocket 2.6 18:09:23 10° NNW 18:14:57 60° ENE 18:20:29 10° SSE
Nadezhda 4 Rocket 4.3 18:12:44 10° NNE 18:18:24 39° E 18:24:03 10° SSE
Cosmos 2034 Rocket 4.0 18:12:12 10° S 18:18:34 80° E 18:24:56 10° N
OAO 3 Rocket 3.3 18:14:23 10° WSW 18:19:17 73° NNW 18:21:32 32° ENE
Chunghua 1 4.4 18:19:31 10° WNW 18:23:13 84° SSW 18:24:19 43° ESE
NOAA 12 4.0 18:21:49 10° SSE 18:27:05 68° ENE 18:32:21 10° N
Meteor 2-20 4.3 18:23:42 10° N 18:29:44 64° E 18:35:43 10° SSE
ISS -2.5 18:30:10 10° SSW 18:32:19 30° SSE 18:32:19 30° SSE
Cosmos 1441 Rocket 3.9 18:29:26 10° SSW 18:33:18 56° W 18:36:58 11° N
GPS 2-05 Rocket1 3.8 18:32:34 10° WNW 18:35:12 34° NNW 18:35:12 34° NNW
BREEZE-M R/B 3.1 18:32:43 10° NW 18:36:04 58° NE 18:37:03 47° E
Cosmos 1092 Rocket 4.4 18:30:50 10° NNE 18:37:49 34° ESE 18:42:11 10° SSE
Okean 2 Rocket 3.3 18:32:46 10° N 18:37:17 73° W 18:41:46 10° S
Cosmos 1777 Rocket 4.4 18:32:39 10° S 18:37:15 39° ESE 18:37:15 39° ESE
Cosmos 44 Rocket 3.5 18:32:52 10° NNW 18:37:32 47° ENE 18:37:32 47° ENE
Meteor 1-11 Rocket 3.6 18:32:35 10° N 18:38:22 69° E 18:44:00 10° SSE
Thor Agena Rocket 3.5 18:36:30 34° NE 18:38:39 61° ESE 18:43:44 10° S
Cosmos 1943 Rocket 3.9 18:35:15 10° SSE 18:36:40 16° SE 18:36:40 16° SE
Cosmos 405 3.0 18:38:04 10° N 18:41:39 80° W 18:45:13 10° S
CZ-4 R/B 4.3 18:39:04 10° SW 18:41:42 18° W 18:44:20 10° NW
Cosmos 292 Rocket 3.6 18:39:49 10° NNW 18:44:36 82° ENE 18:49:20 10° SSE
OAO 3 Copernicus 4.2 18:41:43 10° WNW 18:46:49 85° NNE 18:47:36 64° E
Cosmos 1674 Rocket 3.7 18:45:39 10° S 18:49:18 59° SSE 18:49:18 59° SSE
Cosmos 968 Rocket 4.4 18:50:56 10° SW 18:55:52 47° WNW 18:59:38 17° N
Cosmos 44 3.2 18:56:30 10° NNW 19:01:17 86° W 19:01:17 86° W
USA 234 4.3 18:58:41 20° NNE 19:02:36 38° NW 19:08:30 10° WSW
Cosmos 2082 Rocket 3.2 18:59:52 10° NNW 19:05:15 46° WSW 19:10:35 10° S
ALOS 3.6 19:02:48 10° SSW 19:07:09 39° W 19:11:32 10° NNW
MOS 1-B Rocket 4.4 19:04:55 10° SSE 19:11:49 73° ENE 19:20:00 10° N
IUS-9 SRM-1 4.1 18:58:43 10° W 19:18:48 53° SSW 19:20:05 46° SSE
FengYun 1-2 T 4.5 19:15:53 10° S 19:22:03 64° NW 19:26:53 10° NNW
NOSS 3-1 (C) 4.1 19:23:30 10° SSW 19:26:53 40° SSW 19:26:53 40° SSW
CZ-4C R/B 3.0 19:36:42 10° NNW 19:43:23 73° NW 19:43:23 73° NW
Cosmos 2369 Rocket 3.7 19:49:39 10° SW 19:53:18 32° WSW 19:53:18 32° WSW
